Location: Boston
(42.3580°N, 71.0600°W)
Time: 08:52:02
(UTC-04:00)

Vanguard 1 Rocket - Visible Passes

Search period start: 18 July 2018 00:00
Search period end: 28 July 2018 00:00
Orbit: 652 x 4225 km, 34.3° (Epoch: 17 July)

Date Brightness Start Highest point End Pass type
(mag) Time Alt. Az. Time Alt. Az. Time Alt. Az.
20 Jul 11.9 04:26:59 10° SSE 04:33:02 11° SE 04:38:43 10° ESE visible
22 Jul 11.8 04:21:58 10° SSE 04:35:21 17° SE 04:47:07 10° ESE visible
24 Jul 11.6 04:20:20 10° S 04:37:31 23° SE 04:52:25 10° E visible
25 Jul 11.7 03:14:35 10° SSE 03:24:21 13° SE 03:33:45 10° ESE visible
26 Jul 11.5 04:19:59 10° S 04:39:35 29° SE 04:56:40 10° E visible
27 Jul 11.6 03:11:38 10° SSE 03:26:17 19° SE 03:40:26 10° E visible
